Theta_e
319 318 318 318 317 317 316 317 319 322 324 324 324 325 326 327 327 327 326 326 326 326 327 326 326 326 326 326 327 327 327 328 328 328 328 328 328 328 330 331 331 332 332 333 332 332 330 329 329 327 325 324 323 323 322 319 317 314 309 306 304 301 299 299 299 298 296 293 292 292 292 292 291 292 291 291 290 290 289 289 289 288 288 288 288
322 324 319 317 317 316 316 316 317 320 321 321 322 322 323 324 325 326 325 325 325 325 326 325 325 325 324 325 325 326 326 326 326 328 328 327 326 326 328 329 330 329 330 332 332 331 330 329 329 328 326 324 323 322 322 320 316 312 308 304 303 302 299 298 299 300 297 294 292 292 291 291 290 290 291 290 290 289 289 289 288 288 287 287 287
329 329 321 317 317 316 316 316 316 317 318 319 320 320 321 322 323 324 323 324 324 324 324 324 324 324 324 324 324 325 325 325 325 326 327 326 325 325 327 328 329 330 330 331 332 331 331 330 329 329 327 325 323 321 320 318 315 311 309 307 303 301 299 298 300 302 300 294 292 294 293 291 291 290 289 290 289 289 289 288 288 287 287 287 286
330 330 324 318 317 316 316 315 315 316 317 318 318 319 320 321 322 322 322 322 323 323 323 322 322 322 322 322 323 323 323 323 324 324 324 324 323 324 327 329 330 331 331 331 331 331 331 331 329 328 328 326 324 321 319 317 315 312 310 309 306 302 299 297 299 301 302 299 295 295 294 294 296 293 289 289 289 289 289 288 288 287 287 286 286
329 330 327 320 316 316 315 315 315 315 316 317 317 318 319 320 321 321 321 321 321 322 321 321 321 320 321 320 321 321 321 321 321 322 322 322 321 321 324 328 329 330 330 330 331 330 330 330 329 328 327 326 324 322 321 318 315 314 312 311 309 307 302 298 298 299 302 305 302 298 295 297 299 293 290 290 288 289 289 288 288 288 287 287 287
329 328 327 321 316 316 316 315 315 315 315 315 316 317 318 319 320 320 320 320 320 320 320 320 320 320 320 319 319 319 319 319 320 320 320 320 319 319 321 326 328 328 328 329 330 329 329 329 328 328 327 327 326 322 321 318 315 314 312 311 309 311 308 300 298 299 300 302 303 302 300 300 298 292 291 292 288 288 289 288 289 288 287 287 287
330 328 327 323 317 315 315 315 314 314 314 314 315 316 317 318 319 319 320 320 320 320 320 319 319 319 319 318 318 318 318 318 318 318 318 318 318 318 320 324 326 327 327 327 328 328 328 328 328 328 326 326 326 323 320 317 316 314 311 311 310 309 309 304 300 300 300 299 300 302 301 301 299 294 293 293 290 288 288 289 289 288 287 287 287
333 331 328 324 318 315 315 315 314 314 314 314 314 315 316 317 318 319 319 320 320 319 319 319 319 318 318 318 317 317 317 317 317 317 317 317 317 317 319 321 324 325 326 326 327 327 328 328 327 327 325 324 325 324 322 318 316 313 311 311 310 308 309 307 303 301 300 300 300 301 301 301 299 296 295 294 292 291 289 288 288 288 287 287 288
333 331 328 322 317 316 316 316 314 314 314 313 314 315 315 316 317 318 319 319 319 319 319 318 318 317 317 317 316 316 316 316 317 317 316 316 317 317 318 320 322 323 324 324 324 325 326 327 327 326 324 322 323 323 321 318 316 314 314 313 312 309 309 308 306 303 303 303 301 300 300 300 297 296 296 294 293 294 291 288 287 288 287 287 288
328 326 324 318 315 316 315 315 315 314 314 313 314 314 315 316 317 318 318 318 318 318 318 318 317 317 316 316 315 315 315 315 317 317 317 316 316 317 317 318 320 321 322 322 323 324 324 325 325 324 323 321 321 321 320 318 316 316 316 316 314 311 309 307 306 306 305 304 303 302 300 299 297 296 296 295 294 294 292 288 287 288 287 287 287
326 323 319 313 312 314 313 314 314 313 313 313 313 314 315 316 316 317 317 317 317 317 318 317 317 316 316 315 314 314 314 314 316 317 317 316 316 316 317 318 319 319 319 320 321 322 321 322 321 321 321 320 320 321 319 319 318 317 317 316 314 312 309 307 306 307 305 303 303 302 301 300 299 297 296 297 295 293 292 289 287 288 287 287 287
323 322 319 314 313 312 311 312 313 313 313 313 313 314 314 315 316 316 316 317 317 316 317 317 316 316 315 314 314 313 313 314 316 317 316 315 315 315 316 317 317 317 317 318 319 319 319 319 318 317 318 319 320 320 320 320 319 318 317 316 313 310 308 306 305 305 305 304 303 302 302 301 300 299 298 297 296 295 294 290 287 288 287 287 287
325 325 322 319 316 311 309 311 312 312 313 312 313 314 314 315 315 315 316 316 316 316 315 315 315 315 314 313 313 312 312 314 316 317 316 315 315 315 315 315 315 316 317 317 317 318 318 317 316 316 317 318 319 320 320 320 319 318 317 316 314 311 308 306 305 305 305 305 304 304 303 301 300 299 298 298 297 296 294 290 288 288 288 287 287
328 328 325 325 319 311 309 310 311 312 312 312 313 313 313 314 314 315 315 315 315 315 315 314 314 314 313 313 312 312 312 313 316 317 316 315 315 315 315 315 315 316 317 318 319 319 319 318 317 318 319 319 319 319 319 319 318 317 316 315 314 312 309 307 306 305 305 305 305 304 303 302 301 299 298 298 297 295 294 292 289 288 288 288 287
332 332 331 328 319 313 312 310 310 311 311 312 312 313 313 313 314 314 314 314 315 315 314 314 313 313 313 312 311 311 312 313 315 316 316 315 315 315 315 315 315 317 319 319 320 320 320 320 319 319 321 320 319 319 318 318 316 315 315 313 312 310 308 306 305 305 305 305 304 303 302 301 300 299 297 297 296 294 294 293 290 289 289 288 287
332 335 334 328 318 314 314 311 311 312 311 312 312 312 312 312 313 313 313 314 314 314 314 313 313 312 312 311 311 311 311 313 314 315 316 315 315 315 315 315 317 318 319 319 319 320 321 321 320 320 321 320 318 318 317 316 315 314 313 312 311 310 307 305 305 305 306 305 304 302 301 300 299 297 296 295 295 294 293 293 292 290 290 289 287
331 332 332 328 318 315 315 313 312 312 311 312 311 311 312 312 313 313 313 314 314 314 314 313 312 312 311 311 311 311 311 312 313 314 315 315 314 314 314 315 316 317 318 318 318 319 320 320 321 320 320 318 317 316 316 316 314 313 313 312 311 309 307 305 305 305 305 305 303 301 300 298 297 296 296 294 293 292 292 292 292 290 290 290 289
333 331 330 325 316 314 315 314 313 313 312 312 311 311 312 312 312 313 313 313 313 314 314 313 312 311 311 311 310 310 310 311 313 312 313 314 313 313 314 314 315 316 316 316 317 318 318 319 320 320 319 318 317 316 315 315 314 313 312 311 310 308 306 305 305 305 304 302 301 299 299 298 296 295 295 293 291 291 291 291 291 290 289 289 289
332 331 331 326 317 315 316 314 314 313 312 312 311 311 312 312 312 312 312 313 313 313 313 313 312 311 310 310 309 310 310 310 311 311 311 312 312 313 313 313 314 314 314 314 315 316 317 318 318 317 316 316 316 315 314 313 312 311 309 308 307 307 305 304 304 304 303 301 300 298 298 297 295 293 292 291 290 289 290 290 289 289 289 289 288
333 333 332 328 319 315 315 314 313 313 312 312 312 312 312 312 312 312 312 312 312 313 313 312 312 311 310 310 309 309 309 309 309 310 310 310 311 311 312 313 313 313 312 312 313 314 315 315 315 314 313 312 313 313 311 309 309 308 307 306 305 305 304 303 303 303 302 301 300 298 297 295 293 291 290 289 288 288 288 288 288 288 288 287 287
333 332 330 326 318 313 314 313 312 312 312 311 311 312 312 312 312 312 312 312 312 312 313 312 312 311 310 309 309 309 309 309 309 309 308 309 309 310 311 312 312 312 312 312 312 313 313 314 313 312 311 311 311 311 310 307 307 306 305 304 303 303 302 302 302 301 300 300 299 297 295 293 291 290 289 288 287 287 287 287 287 287 286 286 286
330 329 329 325 316 312 312 311 311 311 311 311 311 311 312 312 312 312 311 312 312 312 312 312 312 311 310 309 309 309 308 308 308 308 308 307 308 309 309 310 311 311 311 312 312 312 312 312 312 310 310 309 309 309 308 306 305 305 303 302 302 301 301 300 300 299 298 298 297 296 293 290 288 288 288 287 287 286 286 286 286 286 286 286 286
326 327 328 321 313 311 312 310 310 310 309 310 311 311 311 311 311 311 311 311 312 312 312 312 311 310 310 309 308 308 308 308 308 307 306 306 307 308 308 309 309 310 311 311 311 312 312 311 310 308 308 308 307 306 305 303 304 304 302 301 301 300 299 299 299 298 297 295 294 293 290 287 287 287 287 286 286 286 286 286 286 286 287 286 286
326 328 328 317 310 311 310 308 309 309 309 309 309 310 311 311 311 311 311 311 311 312 312 312 311 310 310 309 308 308 307 307 307 306 305 305 305 306 307 307 308 309 309 310 310 310 310 309 307 306 306 306 305 305 303 301 301 302 301 301 299 298 298 298 298 297 296 294 293 291 288 286 287 287 286 285 285 285 286 286 287 287 287 286 286
329 329 329 322 317 313 308 307 309 308 308 308 308 310 310 310 311 311 311 311 311 311 312 311 311 310 309 309 308 307 307 307 306 306 304 304 304 305 305 306 307 307 308 308 308 308 308 307 306 305 305 305 304 303 302 300 300 299 299 299 298 297 296 297 297 296 295 294 292 290 288 286 286 286 285 285 285 285 287 288 288 288 287 287 287
331 328 328 327 324 317 308 307 309 308 308 308 307 308 309 309 310 310 311 311 311 311 311 311 311 310 309 309 308 307 307 306 306 305 304 304 304 304 304 305 305 306 306 306 306 306 306 306 306 305 305 304 303 301 300 299 298 297 297 297 296 295 295 295 295 294 294 293 291 289 287 286 286 286 285 285 286 288 289 290 290 289 289 289 289
330 328 330 329 327 324 314 308 309 310 309 309 308 307 308 308 309 310 310 310 310 311 311 310 311 310 309 309 308 307 307 306 305 305 304 304 303 303 304 304 304 304 304 304 304 304 304 306 306 304 303 301 300 299 298 297 296 295 295 294 294 294 294 293 293 292 291 290 289 287 286 286 286 286 285 286 289 291 292 291 291 291 291 291 290
327 329 333 331 329 331 322 310 309 311 310 309 309 308 307 308 308 308 309 309 310 310 310 310 310 309 309 308 308 307 306 305 304 304 303 303 303 303 303 303 303 303 303 303 303 303 304 304 303 301 300 299 297 296 295 294 293 293 293 293 293 293 292 291 291 289 288 288 287 286 286 286 286 286 288 291 293 294 293 292 292 292 292 291 291
324 325 326 324 323 328 324 312 309 310 309 309 309 308 307 307 307 308 308 309 309 309 309 309 309 309 309 308 307 306 306 305 304 303 303 302 302 302 302 302 302 301 302 302 302 302 302 301 300 299 298 297 295 294 293 292 292 291 292 292 292 292 291 290 288 287 286 286 286 286 285 285 286 289 292 294 294 294 294 293 293 292 292 291 291
320 319 319 318 318 319 317 311 309 311 309 308 308 308 307 307 307 307 307 308 309 308 309 309 308 309 308 307 307 306 305 304 303 302 302 302 302 301 301 301 301 300 300 300 300 300 299 299 298 297 297 295 294 293 292 291 290 290 291 291 291 290 290 289 287 286 286 285 285 285 284 286 290 293 294 294 293 293 293 293 293 292 292 291 291
318 317 317 318 317 318 316 312 310 312 311 310 309 309 308 307 307 307 307 307 308 308 308 308 308 308 307 306 306 305 304 304 302 302 301 301 301 301 300 300 299 299 298 299 299 298 297 297 296 296 295 294 293 293 291 290 290 290 290 290 289 289 288 288 286 286 285 284 284 284 286 290 293 294 293 293 293 293 293 293 293 292 292 291 291
318 317 317 317 318 319 318 314 311 312 313 313 312 310 308 308 308 308 307 307 306 307 307 307 307 307 306 305 305 304 304 302 301 301 300 300 300 300 299 298 297 297 297 297 296 296 296 295 294 293 293 292 292 291 290 289 290 290 289 289 288 288 287 287 286 285 285 284 284 286 289 293 293 293 293 293 293 293 293 293 293 292 292 291 291
318 318 317 317 317 315 314 312 312 313 314 314 314 312 310 310 310 309 308 306 306 306 306 306 306 305 305 304 304 303 303 302 301 300 299 299 299 298 297 297 296 296 296 295 295 295 295 294 293 292 291 290 289 289 288 288 289 288 288 287 287 287 286 286 286 285 285 285 285 287 291 293 293 293 293 293 293 293 293 293 292 292 291 291 290
317 318 317 317 315 312 311 312 313 314 314 314 315 314 312 312 311 309 307 306 305 306 306 305 305 304 304 303 303 302 302 301 300 299 298 298 297 296 296 296 295 295 294 294 293 293 293 292 291 290 289 288 287 287 287 287 287 287 286 286 286 286 285 285 285 285 285 285 286 288 291 292 292 292 293 293 293 293 292 292 292 292 291 291 290
316 316 317 316 313 310 311 313 313 314 314 314 314 314 312 311 309 308 307 306 305 305 305 304 304 303 303 302 302 301 300 299 298 298 297 297 296 296 295 295 294 294 294 293 293 292 291 290 290 289 289 288 287 286 286 287 286 286 286 285 285 285 285 285 285 284 284 285 286 288 291 292 292 292 292 292 293 292 292 292 292 291 291 290 289
316 315 315 314 312 311 311 312 313 313 313 313 313 312 311 309 308 307 306 305 305 304 304 303 303 303 302 302 301 300 299 298 297 296 296 295 295 295 295 294 293 292 292 292 291 291 291 290 289 288 288 287 286 286 286 286 285 285 285 285 285 285 285 284 284 284 284 285 286 288 291 292 292 292 292 292 292 292 292 292 291 291 290 288 287
314 314 313 313 312 312 312 311 311 311 311 311 311 310 309 307 306 305 305 304 303 302 302 302 302 302 302 301 300 299 298 297 296 295 295 295 294 294 294 294 292 291 291 291 290 290 289 289 288 287 286 286 285 285 285 285 284 284 284 284 285 284 284 283 283 284 284 285 287 289 292 292 292 292 292 292 292 292 291 291 290 289 288 287 286
311 310 310 311 311 311 310 309 308 309 309 309 308 307 307 306 304 304 303 302 301 301 301 301 301 301 301 300 299 298 297 296 295 295 294 294 293 293 293 293 292 291 290 290 289 289 288 287 287 286 286 285 285 284 285 284 284 284 284 284 284 284 284 283 283 283 284 286 289 291 291 291 291 291 291 291 291 291 291 290 289 288 287 286 285
307 306 306 307 308 308 308 307 306 306 306 306 305 305 305 304 303 302 301 300 300 300 300 300 300 300 300 299 298 297 297 296 295 294 294 293 292 292 292 291 291 290 290 288 288 288 287 286 286 286 285 285 284 284 284 284 284 284 284 284 284 284 283 283 283 284 287 289 291 291 290 290 290 290 291 291 290 290 289 289 288 286 285 284 284
305 306 304 304 305 304 305 305 304 304 304 303 303 303 302 302 301 300 299 299 299 299 299 299 299 299 298 298 297 297 296 296 295 294 293 292 291 291 290 289 289 289 289 287 287 287 286 286 285 285 284 284 284 284 283 284 284 284 284 284 284 284 283 283 284 287 290 290 290 290 290 290 290 290 290 290 289 288 288 287 285 284 284 283 283
304 305 303 302 302 302 301 301 301 301 301 301 301 300 300 300 299 298 298 298 298 298 298 298 297 297 297 296 296 296 296 295 294 293 292 291 290 290 289 288 288 288 287 286 285 286 285 285 284 284 283 283 283 283 283 284 284 284 284 283 284 284 284 283 284 287 290 290 289 289 289 289 289 289 289 288 287 287 286 285 284 284 283 283 283
304 303 302 301 300 300 299 299 299 299 298 298 299 298 298 298 297 297 297 297 297 297 297 296 296 296 295 295 295 295 294 293 292 292 291 289 289 289 288 288 287 287 286 285 284 284 284 283 282 282 282 282 282 282 284 284 284 283 283 284 284 284 285 284 284 286 288 289 288 289 289 289 289 288 287 286 286 285 285 284 283 283 283 282 282
301 302 301 299 298 298 298 297 297 296 296 296 296 297 297 296 296 296 296 296 296 296 295 295 294 294 294 294 293 293 293 292 291 290 290 288 288 287 287 287 286 286 285 284 283 283 283 282 281 281 282 282 282 282 284 285 284 283 283 283 284 284 284 284 284 285 287 287 288 288 288 287 287 286 285 285 284 284 283 283 282 282 282 281 281
300 301 300 298 297 296 296 296 295 295 295 295 295 295 295 295 295 295 295 294 294 294 294 293 293 293 292 292 292 291 291 290 290 289 289 288 287 286 286 286 285 285 284 283 282 282 282 281 281 281 281 281 282 282 284 285 285 284 283 283 283 283 283 284 285 286 287 287 287 287 286 286 285 285 284 283 282 282 281 281 281 281 280 280 279
299 299 298 297 296 295 295 294 294 293 293 293 294 294 294 294 293 293 293 293 293 293 292 292 291 291 291 290 290 290 290 289 289 289 288 287 286 285 285 284 284 284 283 282 282 282 282 281 281 281 281 281 281 283 284 285 285 285 284 283 283 284 285 285 286 286 287 286 286 285 285 284 284 283 282 281 281 280 280 280 279 279 279 278 278
298 298 297 296 294 294 294 293 293 292 292 292 293 293 294 293 292 292 292 292 292 292 291 290 290 289 289 289 289 288 288 288 288 288 287 286 285 285 284 284 284 283 283 282 282 282 282 281 281 281 281 281 281 282 284 285 285 285 285 284 284 285 285 285 286 286 286 285 284 284 284 283 282 281 281 280 279 279 279 279 278 278 278 277 277
298 297 296 294 293 293 293 292 292 291 291 291 292 292 292 292 291 291 291 291 291 291 289 289 288 288 288 288 288 287 287 287 286 286 286 285 285 285 284 283 283 283 283 282 282 282 282 282 282 281 281 281 281 281 282 283 284 284 285 285 285 285 285 285 285 285 284 284 284 283 283 282 281 280 279 279 279 278 278 278 278 277 277 276 276
297 296 295 293 292 292 292 292 291 291 291 291 291 291 291 291 291 291 291 290 290 289 288 288 287 287 287 287 287 286 286 286 285 285 285 284 284 284 284 283 284 284 284 283 283 283 283 282 282 282 281 281 281 282 282 283 283 283 284 284 284 285 285 285 285 284 284 283 283 282 281 280 279 279 279 279 278 278 278 277 277 277 276 276 276
296 295 294 293 292 291 291 291 291 290 290 290 290 290 291 291 290 290 290 290 289 288 288 287 287 287 287 286 286 286 285 285 285 285 284 284 284 284 284 284 284 284 285 285 284 283 283 283 283 283 282 282 281 282 283 284 284 284 284 284 284 284 284 284 284 284 283 282 280 280 279 279 279 279 278 278 278 277 277 277 277 276 276 276 275
295 294 293 292 291 291 291 291 290 289 289 289 289 289 290 290 290 290 290 290 289 288 287 287 287 286 286 286 286 285 285 285 285 284 284 284 284 284 285 285 284 284 285 285 285 284 284 284 284 284 284 285 285 284 284 284 284 284 284 284 284 284 283 283 282 281 281 280 279 279 279 279 278 278 278 278 277 277 277 276 276 276 275 275 274
294 293 291 291 291 290 290 290 289 288 288 288 289 289 289 289 289 289 290 290 288 287 287 287 286 286 286 286 286 285 285 285 285 284 284 284 284 284 284 285 285 285 285 285 285 285 284 285 285 284 284 285 286 285 284 284 283 283 282 282 281 281 281 280 280 280 280 279 279 279 278 278 278 278 277 277 277 277 276 276 275 275 274 273 273
Wind_Speed
12 18 23 28 30 29 29 29 28 27 28 29 29 30 32 32 31 31 32 31 31 31 30 30 31 31 30 31 30 27 26 27 27 28 30 31 32 31 31 30 30 31 32 32 33 33 33 34 34 35 36 36 37 37 36 35 34 33 31 30 30 28 26 26 28 28 24 18 13 12 12 11 10 11 13 13 13 13 13 12 12 11 11 11 11
9 13 19 26 28 28 29 29 29 29 30 31 32 33 32 32 32 32 32 32 32 33 33 33 34 34 33 33 33 29 27 28 28 29 30 31 31 30 32 33 32 31 33 34 35 35 33 33 34 35 36 37 37 37 37 36 34 34 33 31 29 29 28 28 31 28 21 18 16 11 7 6 7 7 10 12 13 13 13 12 12 12 12 11 11
8 9 13 20 24 25 26 27 29 31 31 32 32 32 31 31 32 32 33 34 34 34 34 35 34 33 31 30 29 28 26 28 29 28 28 29 28 27 29 33 33 32 33 35 35 36 34 33 34 36 37 38 37 36 36 36 36 36 36 34 30 28 26 29 33 28 21 21 17 8 4 4 4 6 9 11 13 14 13 13 13 13 12 11 11
9 8 10 15 19 22 24 26 28 28 27 28 29 30 31 32 33 33 33 34 35 35 34 33 31 29 28 26 26 26 25 25 26 26 27 27 28 28 29 30 32 33 34 35 36 35 35 34 34 36 37 38 38 38 37 37 38 39 39 38 34 30 26 29 32 28 24 22 13 4 5 5 3 8 11 9 11 12 12 13 14 13 14 12 12
8 9 9 11 16 21 24 26 26 26 26 27 29 30 30 31 32 32 32 33 33 34 33 31 29 28 27 24 23 24 23 23 25 26 27 27 28 30 31 31 30 32 33 35 35 34 34 34 34 36 36 37 38 39 40 40 41 42 42 41 40 36 31 31 32 28 25 26 18 8 7 3 3 9 12 7 9 12 11 12 13 13 14 13 13
7 8 8 10 15 20 22 23 24 25 26 27 28 29 28 28 29 29 28 30 31 31 31 31 30 29 29 28 26 25 24 25 28 29 28 28 28 29 33 34 31 30 31 32 34 34 34 33 33 35 35 36 38 39 40 41 42 43 44 43 42 40 35 32 34 31 24 25 22 13 9 5 4 13 11 3 6 10 11 12 12 13 14 14 14
7 7 6 8 13 15 17 20 22 23 24 24 25 26 26 25 26 27 27 27 28 29 30 31 30 30 30 30 29 28 27 27 28 28 27 27 27 27 32 35 33 31 31 31 33 34 34 33 33 34 36 38 38 39 40 41 43 44 44 44 41 38 35 33 36 35 28 26 25 17 11 7 8 14 10 4 5 6 10 12 12 13 15 15 15
6 7 6 6 10 14 15 18 21 21 21 21 22 23 24 23 24 26 26 26 26 27 29 30 30 29 28 28 27 27 26 24 23 24 24 24 26 28 30 32 33 32 31 31 32 32 32 32 32 34 36 38 38 39 41 42 43 43 42 42 40 36 35 34 35 37 33 31 29 23 15 10 11 13 13 10 6 3 7 9 11 14 16 16 15
5 6 4 4 8 12 14 16 18 18 18 19 20 21 22 22 22 24 26 25 25 26 27 29 29 28 27 26 25 25 24 22 20 20 22 23 25 28 29 30 31 31 31 30 30 29 29 30 32 33 35 37 38 38 39 40 41 41 41 42 40 38 38 35 33 37 37 33 32 30 20 13 13 11 13 13 7 4 5 6 10 12 14 18 17
5 5 6 6 7 8 9 12 14 15 16 17 19 20 21 22 22 23 24 24 24 25 26 27 28 28 27 27 26 25 23 21 19 19 22 24 25 26 28 30 31 32 31 30 29 29 29 31 32 33 34 36 37 36 36 38 40 42 43 43 42 41 40 37 33 36 38 33 32 34 26 19 16 12 13 14 7 6 5 7 15 17 14 17 19
4 5 6 7 8 8 9 11 13 14 15 16 18 19 21 22 22 23 23 23 23 24 25 26 28 28 28 28 27 26 23 22 21 21 22 24 25 25 28 29 31 32 32 31 30 30 30 31 31 32 33 34 34 34 35 37 39 41 41 41 42 42 40 38 35 33 35 32 30 33 32 28 24 18 18 17 10 7 6 7 16 19 15 16 18
6 5 5 6 6 8 10 11 13 14 15 16 18 19 20 22 22 23 23 23 22 23 25 26 27 28 28 28 28 26 24 23 24 24 24 25 26 26 27 28 29 29 30 30 31 31 31 32 31 31 31 32 33 34 35 36 37 39 39 39 40 40 39 37 34 32 33 33 30 30 31 31 29 23 20 19 15 12 10 9 14 16 12 12 16
6 6 6 6 5 8 12 14 16 16 17 18 19 19 20 21 22 22 23 23 22 22 24 26 27 28 28 28 27 26 24 25 25 26 27 27 27 27 28 28 28 29 30 30 31 32 33 34 34 33 32 32 33 33 34 35 36 36 36 38 39 40 39 37 35 33 32 33 32 31 30 30 28 21 17 18 17 15 12 11 14 14 10 9 13
6 6 6 6 6 9 13 15 17 19 19 19 20 20 20 20 21 21 23 23 23 23 24 26 27 28 28 28 27 26 25 26 27 26 26 27 28 28 29 30 30 31 31 30 30 31 33 34 35 35 34 33 33 33 34 35 36 36 36 37 39 40 40 39 37 34 30 29 30 29 28 28 26 21 18 17 17 18 17 16 15 10 8 10 12
6 6 6 6 8 11 13 15 18 19 20 20 20 21 21 21 22 23 24 25 25 24 24 25 27 27 28 28 27 26 25 26 27 27 26 26 27 28 29 30 31 31 31 29 29 31 33 33 33 33 33 33 33 33 34 36 36 36 36 37 38 39 39 37 35 32 28 26 27 27 25 25 24 22 19 17 18 19 19 20 19 11 5 6 8
6 6 6 7 10 14 15 16 18 19 19 21 21 22 22 22 23 24 24 25 26 26 26 26 26 26 27 27 26 26 25 26 27 28 27 26 27 28 29 30 31 30 29 28 29 31 33 33 32 32 33 33 33 33 34 35 35 35 35 36 37 38 38 36 32 30 28 26 26 27 26 25 25 24 21 18 18 18 16 17 19 17 10 4 3
7 7 7 8 10 14 16 17 19 20 20 22 22 22 22 23 23 24 24 25 26 28 27 26 26 25 26 26 26 25 25 26 26 27 27 27 26 27 28 29 30 30 29 28 29 31 33 33 33 33 33 34 33 33 33 33 34 34 35 35 36 37 37 36 32 28 27 27 27 27 26 25 24 23 21 18 17 16 15 15 16 17 14 8 4
6 7 7 7 8 11 14 16 17 19 20 21 21 21 21 22 23 24 25 26 27 28 28 27 26 26 26 26 26 25 25 25 25 25 26 27 27 27 27 28 29 29 28 28 28 31 33 33 33 34 34 35 34 33 32 32 32 33 33 34 34 34 34 34 32 29 26 26 27 26 25 24 22 21 20 18 16 15 15 16 15 14 13 12 9
2 4 5 5 6 9 11 14 15 17 19 19 20 20 21 22 22 23 24 25 26 26 27 26 26 25 25 25 25 26 25 25 25 24 25 26 28 28 28 28 28 27 27 28 28 30 31 32 33 34 35 35 34 33 32 31 32 31 31 31 32 32 33 32 31 30 27 26 25 25 24 23 22 21 19 18 17 17 17 18 16 14 12 11 11
5 6 6 5 7 8 9 12 14 16 17 18 19 20 21 22 22 22 22 23 24 25 26 26 26 25 24 24 25 25 26 25 25 25 25 26 28 29 29 29 28 27 27 27 27 28 30 30 30 32 33 33 32 32 31 31 31 30 29 29 30 31 32 31 30 29 28 27 25 25 24 23 23 22 21 20 19 19 19 18 16 14 11 9 8
6 6 5 3 4 6 7 10 12 14 16 17 19 20 21 21 22 22 22 23 24 26 26 26 26 25 25 25 25 25 25 25 26 27 26 27 27 28 29 28 27 27 27 26 26 26 27 28 28 29 31 31 30 30 31 31 30 29 28 28 29 29 29 30 29 27 27 27 26 26 24 24 24 23 22 21 21 20 19 17 14 12 11 8 6
6 5 4 3 2 2 6 8 10 13 15 16 18 20 21 22 22 22 23 24 25 26 27 27 26 26 26 25 25 25 25 26 26 26 26 26 27 27 27 27 27 27 26 25 24 24 25 26 27 29 29 29 29 29 29 30 29 29 29 28 28 28 28 28 28 28 27 27 27 26 26 26 25 24 23 22 22 20 19 17 15 12 10 7 5
3 5 6 5 4 4 6 9 11 13 15 17 19 21 22 23 23 23 24 25 26 26 26 26 26 27 27 26 25 25 26 27 27 27 25 25 27 28 27 27 27 26 25 25 24 23 24 25 27 27 28 27 27 27 27 28 28 28 29 30 29 29 29 29 29 29 28 28 28 28 29 29 27 25 25 24 22 21 19 18 15 12 10 8 5
1 3 5 7 7 5 5 8 10 12 14 17 20 22 22 23 23 24 25 25 25 25 26 26 27 27 27 27 27 27 27 28 28 28 26 25 25 27 27 27 27 26 26 25 24 24 23 24 25 26 26 25 25 25 26 26 27 28 28 29 29 29 30 31 31 30 30 30 31 31 31 31 28 27 27 25 23 21 19 18 15 12 10 8 6
4 6 5 5 7 6 6 8 10 11 14 17 19 21 22 22 23 24 25 25 25 26 26 27 27 27 27 27 28 28 29 29 29 28 27 25 26 27 27 27 26 26 25 25 25 24 24 23 23 23 23 23 24 25 26 27 27 27 27 27 28 28 29 30 30 31 31 32 33 33 33 31 30 29 28 26 24 21 18 16 14 12 10 8 6
6 6 6 6 6 7 9 12 13 14 15 18 20 21 21 22 23 24 25 26 26 26 27 27 27 27 28 28 29 29 30 30 30 28 27 25 26 27 27 26 26 26 25 25 25 24 23 22 22 22 22 23 24 25 26 27 26 26 25 25 26 27 28 29 30 31 32 33 34 34 33 32 30 30 29 26 23 20 17 15 13 11 8 6 4
7 5 4 5 7 8 10 14 15 16 17 20 21 22 22 22 23 24 25 25 26 27 27 27 27 27 28 29 30 30 31 30 29 28 26 25 25 26 27 26 26 25 25 26 25 24 23 22 22 23 23 23 23 24 25 25 25 25 26 25 25 27 28 28 29 30 32 33 33 33 32 31 30 30 29 26 22 18 16 13 11 8 6 4 3
6 5 5 7 9 9 9 13 17 18 20 22 24 24 24 24 24 24 24 25 26 26 26 27 27 28 30 31 30 30 30 29 28 28 27 26 25 25 25 25 25 25 25 25 25 24 22 21 22 22 22 22 22 23 24 24 24 25 26 26 26 27 28 28 29 30 31 31 31 31 31 30 29 27 24 21 19 17 15 13 10 7 5 4 2
7 7 8 10 11 9 8 12 16 19 21 23 24 25 24 24 25 24 25 27 27 26 26 27 28 30 31 30 29 29 29 28 28 28 28 27 26 25 25 25 24 24 24 24 23 22 21 21 21 21 21 22 22 23 24 24 24 25 26 26 27 29 29 30 30 30 31 31 31 31 30 29 26 23 21 19 17 15 13 11 10 8 6 4 2
9 10 11 11 11 10 9 11 14 17 20 21 22 24 25 26 26 25 27 29 29 28 27 28 29 32 31 29 28 27 27 27 28 28 28 28 26 25 25 24 24 23 23 23 22 21 20 20 20 20 21 22 22 23 24 24 25 25 25 25 27 29 30 31 32 32 31 31 31 31 29 27 24 22 21 19 17 14 10 8 7 6 4 4 3
12 12 12 11 11 10 10 10 13 17 20 22 24 25 26 27 27 27 29 30 30 29 29 29 31 31 29 28 27 27 26 27 27 27 27 27 26 25 25 24 24 23 22 22 21 20 19 19 19 19 21 22 22 23 23 24 25 24 24 26 28 29 30 32 33 33 33 33 32 31 28 26 24 23 21 18 14 11 8 5 4 3 2 3 3
13 13 12 11 10 10 10 11 16 20 20 22 25 26 26 27 29 29 29 29 30 31 30 31 31 30 28 28 28 27 27 27 27 27 26 26 25 25 24 24 24 23 22 21 20 20 19 18 18 19 20 20 21 21 22 23 23 23 24 26 29 31 32 33 34 34 34 34 33 31 28 26 24 22 18 15 11 8 5 3 3 4 5 7 8
11 12 12 12 10 10 12 15 19 22 22 23 25 26 27 28 29 29 28 28 30 31 30 30 30 29 28 28 27 27 27 27 28 27 26 26 25 25 25 24 23 22 22 21 19 18 18 18 18 19 19 19 19 20 20 20 20 21 23 26 29 31 32 33 34 34 36 36 35 33 30 27 23 19 15 11 8 5 3 4 5 7 9 10 11
10 10 11 12 11 12 15 19 22 23 23 22 22 24 26 27 27 26 26 28 30 30 29 29 29 28 27 27 27 27 27 27 27 27 27 26 26 25 24 23 23 22 21 20 18 17 17 18 19 19 19 19 19 20 20 19 19 21 23 25 28 30 30 31 32 34 36 36 35 34 31 27 23 18 13 8 5 3 3 5 7 10 12 13 14
13 12 11 12 13 14 17 19 21 22 20 17 18 21 22 22 23 24 25 27 27 27 27 27 27 26 26 26 26 26 27 27 27 27 27 27 26 25 24 23 22 22 21 20 18 17 17 17 18 19 19 19 19 19 19 19 20 21 23 24 26 27 28 30 31 34 35 35 34 32 28 24 19 15 10 6 3 3 4 6 10 12 15 16 15
13 12 12 14 16 17 17 17 18 18 16 14 15 17 18 18 19 20 22 23 24 24 25 26 26 26 26 26 26 26 26 26 27 27 27 27 26 25 24 23 22 21 20 19 18 17 17 17 17 17 17 18 18 18 18 18 19 22 23 24 25 26 27 28 29 32 33 33 31 28 24 19 15 12 8 4 2 3 6 9 11 14 16 16 16
15 16 17 20 20 19 17 16 16 15 14 13 13 13 14 15 16 18 20 21 22 24 25 26 26 25 25 25 26 26 26 26 27 27 27 27 27 25 24 23 22 21 20 19 18 17 17 16 16 16 17 17 17 16 17 18 19 22 23 24 24 25 25 25 27 30 31 29 27 23 20 16 12 9 5 3 3 5 9 11 13 14 15 15 16
11 14 17 19 19 17 16 14 13 13 13 12 11 12 13 15 16 17 19 20 21 23 24 24 24 23 24 24 25 26 26 26 27 28 28 28 27 26 24 23 22 22 20 19 18 17 16 15 15 15 16 16 16 16 16 18 19 21 23 24 24 24 24 24 26 29 29 27 24 21 16 13 9 6 4 4 5 8 10 11 13 14 14 15 15
12 12 13 16 16 17 17 16 15 14 13 12 12 12 13 15 16 16 17 19 21 22 22 21 21 21 22 23 24 24 25 26 27 28 28 28 26 25 24 22 21 20 19 18 17 16 16 15 14 14 14 15 15 15 16 18 19 21 23 24 24 24 24 25 28 29 28 25 22 19 15 11 8 6 6 6 8 9 10 10 11 12 13 13 13
16 16 15 15 15 15 16 16 16 16 14 12 12 12 13 14 15 15 17 19 19 19 18 18 18 19 20 22 23 24 25 26 27 27 27 26 25 24 23 22 20 19 18 18 17 16 16 15 14 15 15 15 16 16 17 18 18 19 22 24 25 24 25 27 29 29 26 23 20 17 13 10 9 9 8 7 7 8 8 8 8 9 10 11 11
18 19 17 16 16 14 14 14 13 12 11 11 11 11 13 13 13 15 17 18 16 16 15 16 18 19 20 21 22 23 25 25 26 26 26 25 24 24 23 22 21 20 19 19 18 17 16 16 16 16 15 15 15 16 18 17 16 18 21 23 24 24 24 26 29 27 24 21 18 16 14 12 11 9 8 7 6 6 6 6 7 8 9 10 10
18 18 17 16 16 15 14 13 12 10 9 10 10 11 12 12 13 15 15 14 14 15 16 17 18 19 20 20 21 22 24 24 25 26 25 24 23 23 23 22 22 21 21 20 19 18 17 17 16 15 14 14 13 14 17 17 16 17 20 21 22 23 23 25 27 27 23 21 18 16 14 12 10 8 6 5 4 3 4 6 6 6 6 7 9
18 19 19 16 15 15 13 12 11 10 9 8 9 11 12 12 13 13 12 12 13 15 17 18 19 19 20 20 21 22 23 24 24 25 25 24 23 22 22 22 23 23 22 21 20 19 18 18 17 15 14 14 13 13 16 18 17 17 19 20 21 23 25 26 28 28 25 21 17 14 12 10 8 6 5 5 5 5 6 7 6 4 5 7 10
17 18 18 16 15 14 12 10 10 10 9 8 10 11 11 11 11 11 11 13 14 16 17 17 18 19 19 20 21 22 22 23 24 24 24 24 24 24 23 23 23 24 23 21 20 20 19 19 18 16 15 15 15 16 18 19 18 18 20 20 20 22 24 25 25 24 22 18 15 13 11 9 7 6 5 5 5 5 5 5 5 5 7 7 7
18 17 16 15 15 14 12 11 10 9 9 9 10 12 12 11 10 11 13 15 16 17 18 18 19 20 20 21 21 21 22 22 23 23 24 25 25 24 23 23 23 23 22 21 20 19 19 19 18 18 17 17 17 19 20 20 19 18 18 19 19 19 20 20 19 17 16 14 13 12 10 9 7 6 5 4 4 5 4 4 4 4 3 3 3
18 17 15 13 14 13 12 11 10 10 9 9 10 12 12 12 12 13 14 15 17 18 19 20 21 21 21 22 22 22 21 22 22 22 23 24 25 25 24 23 22 22 21 21 20 19 19 18 18 18 19 18 19 20 21 21 21 19 17 16 16 16 15 14 14 14 13 13 12 11 9 8 5 4 4 4 4 5 4 3 2 2 1 1 2
16 16 15 13 13 13 14 13 12 11 9 9 10 11 12 12 13 14 15 16 18 20 21 22 22 23 23 23 23 23 22 21 21 21 22 22 23 23 23 23 22 21 20 20 20 19 18 18 17 17 19 19 19 20 21 21 22 21 19 17 16 16 15 15 15 15 14 13 12 10 8 6 5 4 5 6 6 5 4 4 4 2 0 2 2
17 16 14 14 14 14 15 15 14 12 10 11 12 12 13 14 15 16 18 19 20 22 23 23 23 23 23 23 23 24 23 22 21 21 21 21 21 21 21 20 21 22 22 21 20 19 19 19 19 19 20 20 19 20 21 22 22 22 21 20 19 18 18 17 17 16 15 13 11 9 8 7 7 8 9 9 8 6 4 4 3 1 0 1 2
18 16 15 15 16 16 17 17 16 13 12 13 13 14 15 16 17 20 22 23 23 23 23 23 23 23 23 23 23 23 23 22 22 21 20 19 19 20 19 18 18 19 20 21 22 20 19 19 20 20 21 21 22 22 22 21 21 20 20 20 20 19 19 18 17 17 15 14 13 12 11 11 11 11 11 9 8 7 6 4 3 2 3 4 5
18 16 15 16 18 18 18 17 16 14 13 14 14 15 16 17 20 23 25 26 27 26 24 24 23 23 24 25 24 23 23 24 23 22 21 19 17 17 17 17 17 15 15 16 18 18 17 17 18 17 16 18 20 21 20 19 18 17 17 17 18 18 17 17 16 15 15 15 16 15 14 13 12 12 11 10 9 8 6 5 5 5 6 6 6
19 15 15 17 18 19 18 18 17 15 15 16 16 17 18 20 23 25 27 29 29 27 24 23 22 23 24 25 25 25 25 25 25 25 25 23 21 17 15 15 15 14 13 13 14 15 15 15 15 15 13 12 14 17 18 18 17 17 16 16 16 16 16 17 17 17 16 17 17 16 14 13 12 11 11 10 9 8 6 7 7 7 6 7 7
Wind_Direction
212 205 201 197 200 203 202 202 200 199 202 202 203 204 205 204 205 207 207 205 203 202 204 205 205 206 207 209 210 213 215 216 220 226 229 229 228 226 225 224 222 221 222 221 218 215 212 208 207 207 207 206 206 206 206 205 203 197 189 184 179 172 169 171 171 166 154 144 146 154 164 171 173 183 185 181 180 180 183 185 184 181 181 185 183
212 204 195 190 192 195 195 195 195 196 200 203 204 206 206 204 204 207 206 203 204 204 204 206 207 207 207 209 210 212 214 213 216 220 225 228 229 229 230 230 228 226 225 223 219 216 213 210 210 209 208 207 207 207 207 205 202 196 188 181 179 176 173 173 174 170 161 154 152 141 146 175 185 195 191 185 185 185 189 190 186 185 185 187 187
209 200 186 181 183 186 188 192 196 200 202 203 205 205 204 203 204 206 205 203 204 205 206 208 209 209 209 210 210 212 215 215 218 221 224 227 226 225 228 229 227 225 224 220 217 215 214 214 213 212 211 208 206 204 204 204 201 197 192 186 180 177 175 177 180 181 172 156 145 140 153 165 205 223 208 198 194 192 193 192 191 191 188 186 188
205 199 185 177 177 180 187 193 197 201 202 202 204 204 203 203 204 205 205 205 204 206 208 209 209 208 210 212 210 211 213 215 219 225 229 231 230 224 220 220 219 218 218 216 214 213 215 217 216 213 211 210 208 206 204 204 202 199 196 193 186 179 174 179 185 188 183 168 148 128 155 152 235 212 190 196 202 197 196 197 197 196 191 188 191
201 200 189 176 179 186 193 197 198 199 202 204 205 205 205 205 204 205 205 205 205 206 207 207 206 204 204 205 206 208 212 214 216 221 226 230 233 229 220 215 213 213 215 214 214 214 214 217 218 215 212 211 210 209 209 208 206 203 200 197 194 190 183 181 186 189 195 192 178 155 155 174 245 172 162 181 205 201 199 200 203 203 197 191 196
209 205 190 175 184 192 195 198 198 200 205 208 208 207 207 207 206 205 206 206 206 206 206 206 204 202 200 199 200 202 206 211 214 216 220 224 230 229 222 216 213 213 214 215 215 215 216 217 218 217 217 216 214 212 211 209 207 205 203 200 199 199 192 183 186 188 195 200 192 184 187 204 171 152 148 161 199 206 204 200 206 206 200 196 203
218 219 204 178 181 187 191 196 200 204 209 210 209 208 207 207 207 206 206 206 206 207 206 206 205 204 204 205 205 205 207 212 216 217 218 223 228 227 222 218 215 214 215 217 218 217 218 219 222 224 222 219 215 213 212 211 209 206 204 202 201 201 196 189 189 188 191 199 199 200 207 217 187 169 167 153 156 205 207 201 211 209 201 202 210
190 205 210 183 173 177 186 196 203 209 211 209 207 207 206 206 207 206 207 207 207 208 207 207 206 205 206 209 211 212 213 215 219 222 222 224 227 226 223 220 219 218 218 220 219 218 220 223 226 227 223 218 214 215 215 214 212 208 205 205 205 203 202 201 195 190 192 198 198 203 217 221 198 189 195 180 141 151 191 199 214 214 212 209 213
129 152 162 140 152 169 182 194 203 208 208 206 205 205 204 204 205 205 205 206 207 208 208 207 208 209 208 210 212 215 218 219 224 230 226 223 225 225 223 221 220 219 219 219 219 220 222 225 227 227 222 217 213 214 214 214 213 211 209 210 209 208 208 209 204 197 198 199 195 200 211 205 189 193 202 188 146 125 165 189 194 198 216 217 215
87 107 113 107 125 147 161 177 189 197 202 203 202 202 202 202 202 202 203 205 206 207 208 207 208 210 211 211 213 215 217 219 224 228 222 218 220 221 222 222 221 220 220 222 222 222 222 224 227 226 221 216 214 213 212 213 213 213 214 215 214 212 211 211 210 207 206 204 198 196 196 189 183 189 199 191 162 141 155 183 185 183 199 210 212
122 117 115 117 132 148 151 158 171 183 191 195 197 199 200 200 201 201 202 205 206 207 209 209 209 211 212 214 215 215 216 216 218 219 214 212 214 218 221 223 222 222 223 224 224 223 221 220 221 220 216 213 214 213 213 214 215 215 217 217 216 215 214 213 213 211 209 208 203 199 197 194 192 194 195 189 171 151 144 167 186 190 198 204 206
153 145 144 141 148 162 164 164 169 178 185 189 195 197 198 199 200 200 201 204 207 207 209 211 212 212 213 215 216 216 217 216 216 216 213 212 213 216 219 221 221 222 224 224 223 221 219 214 211 209 208 210 213 214 214 216 217 218 218 218 218 217 215 214 212 212 211 209 207 207 207 204 202 201 197 193 190 184 168 160 174 184 197 207 203
164 157 165 173 180 182 178 175 175 181 187 190 193 195 197 198 199 200 200 202 207 209 210 212 214 215 215 216 217 217 217 215 216 218 217 217 216 215 216 217 218 221 222 223 222 220 217 211 207 206 207 210 214 216 217 218 219 220 222 222 221 220 217 214 213 213 214 212 210 211 212 210 207 206 206 204 203 196 176 160 167 174 176 181 190
168 163 172 185 194 193 188 184 182 185 190 191 193 194 195 196 198 201 202 203 207 211 212 213 216 219 220 220 220 221 219 216 216 218 219 218 217 217 218 218 220 221 222 222 223 221 218 214 212 211 212 214 217 219 220 221 222 223 225 224 223 223 219 215 214 214 214 214 211 210 209 208 206 207 209 206 199 192 181 166 159 162 162 155 171
170 174 186 195 193 190 189 190 190 191 191 191 192 193 195 196 198 201 203 204 207 211 213 214 217 220 222 224 224 224 222 218 218 220 220 219 218 220 221 220 221 223 224 225 228 227 223 221 219 217 218 219 220 221 222 222 223 224 226 226 225 224 219 214 213 212 213 213 210 207 202 198 198 198 198 195 190 190 190 180 165 151 138 149 169
184 195 208 207 195 190 190 192 193 194 193 192 192 193 196 198 200 202 204 205 206 210 213 216 218 220 222 224 225 224 223 221 221 221 222 222 220 221 223 223 224 227 228 230 232 231 227 225 224 223 223 224 223 224 225 225 224 225 226 226 226 224 219 215 214 213 215 214 209 204 197 190 190 191 189 189 189 190 195 194 183 171 157 148 172
199 205 216 217 203 197 197 195 194 193 194 195 196 198 200 200 201 202 204 205 207 210 213 216 217 218 220 221 222 222 222 222 223 223 223 224 222 222 225 227 229 230 231 233 233 231 227 226 227 229 230 228 226 226 227 228 227 227 227 227 227 225 220 216 215 213 213 210 203 198 195 190 188 188 188 188 190 191 190 191 193 189 177 162 152
208 215 227 230 217 209 205 203 203 202 201 201 202 203 204 204 203 202 203 205 207 210 214 216 216 217 219 219 221 222 222 223 225 227 226 225 224 223 224 226 229 231 231 232 232 230 229 229 231 234 233 230 227 226 227 229 229 228 228 228 227 224 219 214 213 212 206 200 195 193 194 193 190 188 186 184 185 184 180 178 181 187 185 175 158
272 269 268 240 215 211 205 203 208 210 210 209 207 205 204 205 205 205 206 208 209 211 214 217 218 218 220 222 224 224 223 224 226 228 228 228 228 226 226 226 227 230 231 231 231 231 232 233 235 235 231 228 226 225 226 225 226 226 225 226 224 221 218 213 211 211 206 200 195 191 192 192 191 187 179 175 176 175 173 173 172 172 175 174 160
324 304 280 237 212 211 208 209 210 209 210 211 208 206 204 204 204 205 208 210 211 212 213 217 219 220 222 223 224 224 224 224 224 226 228 229 230 229 229 229 229 230 230 231 233 234 234 235 235 233 229 226 225 225 225 224 222 222 221 221 220 218 215 211 209 209 207 205 200 194 193 191 186 180 172 168 167 169 170 169 169 167 160 158 155
292 276 263 236 203 201 207 216 215 210 209 208 208 207 205 205 205 205 206 208 211 212 213 217 219 220 221 221 222 223 223 223 223 225 226 227 228 228 229 229 229 230 230 231 233 234 236 237 236 234 231 229 228 227 227 225 222 220 219 219 218 216 213 209 207 205 203 203 200 194 189 186 182 174 166 162 161 163 164 160 158 158 148 143 148
282 289 305 1 55 183 204 212 209 208 208 205 206 207 206 207 207 207 208 210 212 213 213 216 218 220 222 223 223 222 222 224 224 224 224 225 226 226 226 226 227 228 230 232 234 234 237 238 238 236 234 231 230 229 227 224 222 221 219 219 219 216 212 207 205 202 198 197 195 190 182 178 177 171 161 158 158 158 156 151 148 149 143 137 141
310 332 325 328 313 254 222 218 212 209 211 209 208 208 209 210 208 209 211 212 214 214 214 216 218 221 223 224 224 223 222 224 225 226 225 224 225 225 225 226 227 229 230 233 235 236 239 239 238 236 234 232 231 229 227 224 224 223 220 220 219 217 212 208 203 199 195 191 187 183 178 174 171 164 156 155 155 153 151 147 144 148 149 143 141
300 292 290 292 288 273 241 234 230 223 220 218 215 213 213 213 211 212 214 215 214 214 215 216 218 221 223 224 225 224 224 225 227 228 227 224 224 225 225 227 228 229 231 232 233 235 236 237 235 233 233 233 231 230 228 226 225 225 222 220 218 216 213 210 205 199 193 189 185 180 175 172 168 160 153 152 152 150 150 150 148 151 155 154 154
231 234 237 259 270 263 244 238 242 242 238 232 227 221 219 218 215 215 217 217 216 215 214 215 217 220 222 223 225 225 225 226 227 229 228 225 225 225 226 227 229 230 231 231 231 231 231 232 234 235 235 234 234 233 230 227 225 224 223 221 217 214 213 211 208 202 195 190 187 182 175 171 166 157 151 152 154 153 153 154 155 157 158 163 172
251 228 202 211 234 238 231 226 228 236 240 239 236 230 226 224 222 220 219 218 216 215 215 215 217 220 221 223 224 226 227 226 226 227 228 226 225 225 226 227 228 230 231 229 229 229 229 233 237 239 238 237 236 233 230 227 224 221 220 219 215 212 210 210 207 201 196 192 188 182 174 169 165 158 155 156 157 156 157 159 160 159 162 175 193
249 235 211 223 229 226 225 224 224 228 233 237 237 234 231 228 227 226 224 221 218 216 215 216 218 221 223 224 224 226 228 227 226 227 228 227 226 225 225 226 226 228 227 226 226 227 230 236 240 240 238 237 233 230 228 225 221 218 216 213 209 207 207 206 203 198 194 191 186 179 171 167 166 165 163 161 159 158 157 157 154 150 153 168 199
268 265 260 257 248 239 231 227 226 227 228 231 234 235 233 231 232 229 227 226 222 217 216 217 219 222 225 226 226 227 229 230 229 229 228 226 225 224 224 224 225 225 225 226 227 229 232 236 237 236 235 233 228 225 224 221 217 215 213 209 205 204 202 199 197 194 191 188 182 175 168 166 167 167 163 157 154 152 148 143 139 134 132 138 167
293 278 266 264 261 255 243 234 231 229 228 228 228 230 230 231 233 230 228 229 225 220 219 218 220 224 227 228 228 229 231 231 230 229 227 224 223 223 223 223 225 225 226 227 229 231 233 234 233 232 232 228 224 222 220 217 213 211 210 207 203 200 197 194 190 187 186 183 176 169 165 165 164 159 152 146 142 140 138 136 134 130 126 129 156
284 274 267 267 268 267 261 253 242 232 229 228 227 227 227 229 230 229 229 230 225 222 222 221 223 227 228 227 228 228 228 228 228 226 224 222 221 221 220 221 224 224 224 226 228 230 232 233 232 229 226 224 222 222 220 216 212 210 208 204 199 196 195 191 186 182 180 175 169 164 163 161 157 150 145 142 138 136 136 133 132 134 137 144 172
276 273 268 265 270 273 272 267 258 248 237 229 229 230 228 229 229 229 230 228 224 222 224 225 227 229 227 224 225 224 223 224 224 222 221 219 218 218 217 218 219 220 221 222 224 227 230 231 230 226 222 222 222 222 220 215 213 211 208 202 197 194 193 191 186 180 173 166 162 161 161 159 156 150 146 143 141 142 142 139 148 170 198 219 237
270 274 274 272 270 270 270 267 266 264 252 237 233 230 226 227 231 233 232 226 223 224 225 227 230 229 225 222 222 221 219 220 220 219 217 216 215 213 212 212 213 215 217 219 220 224 227 226 223 220 220 221 221 221 218 215 213 210 207 203 199 196 193 189 185 178 169 163 162 163 162 160 157 152 150 149 149 149 153 176 214 237 250 258 263
263 272 277 276 270 265 266 266 266 267 263 254 244 233 229 234 238 237 232 225 223 225 226 228 229 227 223 222 220 218 218 217 217 217 215 213 210 208 207 208 210 213 215 217 219 223 225 223 219 217 217 217 216 215 212 210 208 204 204 204 201 197 193 188 183 176 169 167 167 166 164 160 157 157 158 155 152 159 187 221 245 258 262 264 266
269 270 273 277 278 276 274 273 273 273 273 267 253 241 239 242 241 235 229 224 223 225 226 227 228 225 222 221 218 217 216 215 215 214 212 209 208 206 205 206 207 209 211 213 217 219 219 219 216 214 214 213 211 210 206 203 200 200 201 202 199 196 192 188 183 177 173 171 171 170 166 161 159 162 164 158 162 191 223 244 258 264 266 267 267
280 274 272 275 278 282 283 283 284 286 285 273 254 245 242 238 233 229 225 224 224 225 225 226 225 223 220 218 216 215 213 211 210 209 207 206 205 203 202 204 206 207 210 212 214 215 214 214 214 213 213 211 211 209 206 203 201 200 200 199 196 193 189 185 181 177 175 175 175 173 168 162 160 162 163 163 181 219 247 261 267 268 268 270 271
276 276 274 276 278 282 288 292 294 296 292 277 258 248 239 232 229 227 226 226 225 223 223 223 221 219 218 215 214 211 209 206 204 203 202 202 201 200 200 201 203 204 207 209 211 212 212 210 208 209 208 207 208 208 205 201 198 198 197 194 192 190 187 184 180 177 176 177 175 172 167 163 161 159 162 177 206 261 273 273 273 271 270 272 276
269 274 276 281 286 291 296 298 296 293 288 277 263 250 240 233 229 227 225 224 221 220 220 219 217 216 215 214 212 209 205 202 200 199 198 198 198 197 198 199 199 198 200 205 206 205 206 204 201 200 200 199 199 201 200 197 196 195 193 189 188 186 184 182 178 175 176 175 172 171 168 164 162 162 173 209 261 281 280 277 275 273 272 276 285
293 300 302 304 306 306 305 302 296 289 282 274 263 251 242 234 230 227 223 219 217 218 219 217 216 215 213 211 210 207 203 199 198 198 197 196 195 194 195 196 197 196 197 199 199 196 197 198 197 197 198 197 195 196 197 196 195 195 192 188 185 180 178 178 173 171 172 171 170 171 170 167 170 183 209 253 275 276 275 275 275 277 279 285 294
336 336 327 318 313 308 302 299 296 291 284 273 261 249 238 233 230 225 220 218 218 219 219 217 215 213 210 208 205 204 202 199 198 198 196 194 192 191 191 192 193 193 192 191 190 188 187 190 193 195 197 196 192 190 193 194 193 194 192 188 183 178 175 172 168 165 166 169 169 170 172 177 193 218 241 261 267 268 270 274 277 281 285 292 304
326 322 316 309 306 303 298 296 295 291 284 272 259 244 232 229 226 219 218 220 223 222 219 216 212 206 203 202 201 201 201 199 197 195 192 190 188 186 184 184 185 186 185 182 183 183 181 183 188 190 192 193 189 184 186 190 192 193 191 186 182 179 174 170 167 166 167 169 171 173 179 194 213 232 247 253 255 260 268 275 281 285 291 303 317
313 311 309 308 306 301 295 292 289 285 274 263 252 239 232 227 219 215 219 222 222 217 210 205 202 198 196 197 198 199 198 196 194 190 186 184 184 183 181 179 178 178 177 175 176 178 177 176 180 184 185 187 187 182 180 183 187 186 187 185 183 181 179 173 171 172 175 178 180 184 194 208 222 234 243 246 252 265 274 280 286 291 299 310 314
312 309 307 307 303 298 292 287 283 278 267 258 246 236 230 222 215 217 221 219 210 203 198 194 191 191 190 191 192 194 192 189 187 184 179 176 177 179 177 175 173 172 170 170 170 171 169 167 169 175 176 176 180 181 177 180 184 184 185 187 185 184 184 181 178 180 185 189 192 196 204 213 220 226 232 236 241 240 240 254 269 285 296 297 290
310 307 307 307 301 295 290 284 280 277 268 255 241 231 223 216 216 218 212 203 196 191 189 187 184 183 183 183 184 185 184 181 179 178 174 169 169 171 171 171 170 167 165 164 165 165 163 159 159 164 168 170 173 175 175 178 182 183 184 186 185 185 186 186 185 186 189 191 194 199 203 206 207 206 205 203 203 209 224 239 251 266 274 276 282
302 299 300 300 295 292 287 278 275 273 266 253 235 225 217 211 211 206 192 186 185 183 180 178 175 174 173 174 175 176 175 175 174 173 169 164 163 165 166 167 168 165 161 159 160 161 159 154 154 157 162 167 168 168 171 174 175 178 181 181 179 178 180 183 184 184 186 187 188 190 192 192 192 193 196 202 211 221 230 230 234 252 267 276 290
298 296 294 290 288 287 279 270 270 267 259 248 231 219 212 204 195 190 185 181 177 175 172 168 165 164 164 164 165 166 168 169 169 169 166 161 160 161 160 162 164 161 158 156 156 159 159 156 156 158 160 165 167 167 169 171 169 171 175 176 174 172 173 175 175 175 177 179 180 180 180 181 186 192 199 209 214 213 212 215 228 246 267 291 320
293 292 288 279 276 276 268 258 256 253 247 237 223 214 209 198 186 183 184 180 174 169 164 159 157 157 157 158 156 156 158 161 164 166 165 161 161 160 157 158 161 160 159 158 158 160 160 159 161 163 164 166 168 168 169 170 167 165 165 168 168 166 167 171 170 168 169 172 174 175 177 180 185 193 195 187 177 177 177 169 165 168 157 360 349
289 287 285 277 267 261 255 246 240 240 236 222 209 204 201 193 184 182 180 177 171 163 155 152 152 151 152 154 151 148 150 153 156 159 158 158 161 160 157 158 160 160 159 159 160 161 163 161 162 165 168 171 172 172 172 173 172 169 164 162 163 165 168 169 166 166 169 171 173 176 180 183 175 158 148 142 140 140 134 132 144 157 10 354 347
290 283 276 268 259 251 248 243 236 233 227 213 200 194 192 188 183 180 175 169 164 157 152 150 149 147 147 149 147 145 145 147 150 153 153 154 158 159 158 161 166 167 165 164 165 166 168 167 165 165 168 170 175 179 180 180 180 179 174 170 170 173 176 176 174 175 176 178 180 178 170 160 148 138 130 128 128 126 125 136 154 174 320 282 260
289 280 269 262 257 252 247 241 236 230 221 210 199 192 192 188 180 175 170 164 158 154 151 148 147 146 146 145 145 145 144 143 143 145 147 150 156 159 159 162 170 177 177 174 172 171 172 172 172 172 172 172 176 183 186 185 185 186 185 183 184 185 186 186 187 188 183 177 172 164 154 147 143 140 139 140 144 146 145 151 176 212 230 241 255
289 278 266 258 253 251 247 240 234 228 216 207 199 193 191 186 178 173 171 165 159 153 151 150 149 148 148 147 145 144 143 142 141 139 137 138 145 156 160 159 162 172 181 182 178 175 174 175 176 179 182 181 179 180 181 182 186 187 188 188 188 188 187 184 181 180 175 166 158 153 151 150 150 151 155 159 163 165 169 184 208 226 237 245 253
287 271 258 255 250 245 241 234 227 220 211 205 200 193 188 183 178 175 173 168 161 154 152 152 153 152 152 150 147 146 145 144 143 142 138 134 131 136 146 153 156 159 165 171 174 173 174 177 176 173 171 173 175 173 171 174 178 178 175 175 175 175 174 171 168 165 162 158 156 154 155 158 159 160 165 170 175 183 197 207 212 219 231 240 247